Showing default

SCATSAT 1, 41790

Orbit data source: Space-Track

SCATSAT 1, 41790 is a payload satellite owned by ISRO (IN) in SSO that was launched on Mon, 26 Sep 2016 UTC via a PSLV launch vehicle from the Sirharikota (SRI). Payload-class satellites include a variety of spacecraft equipped with specific instruments for various scientific and technological missions. These include communications satellites like Starlink; space stations such as the ISS; scientific satellites like the Hubble; Earth observation satellites from companies like Planet Labs, Umbra, and HawkEye 360; GPS; miniature CubeSats for education and research; and military/defense satellites.

Loading next visibility...
Identifier
41790, 2016-059H
Orbit
SSO
Country
Flag of ININ / IND
Related business
Manufacturer
ISRO SAC/Banga
Mission
Operational Civil Earth Obs Sci
Bus & Motor
SSB-2, Unknown motor
Mass
370 kg wet, ~350 kg dry
Launch date (UTC)
2016-09-26 (9 years ago)
Launch vehicle
PSLV
Launch site
Sirharikota (SRI)
Object type
Payload
Rocket body
Debris
Shape & HBR
Box + 2 Pan, 2.0 m
Radar Cross Section
4.015 m², Large (>1 m²)

Expand to show TLE details & history
Last TLE update: 14 hours ago

TLE from 14 hours ago
0 SCATSAT 1
1 41790U 16059H   26036.99611890  .00001948  00000-0  26394-3 0  9991
2 41790  98.1372  99.3398 0053985 311.6986  47.9612 14.79157641 82192
Epoch: 2026-02-05T23:54Z
TLE epoch observation values (Epoch: 2026-02-05T23:54:24.672Z)
Latitude
-0.00006°
Longitude
-35.40333°
Altitude
609.764 km
Speed
7.568 km/s
True Right ascension
06h 37m 21s
True Declination
0° 00' 00"
Sunlit
Object was in full shadow at epoch
Visualization orbit readout
Latitude
Unknown
Longitude
Unknown
Altitude
Unknown
Speed
Unknown
Apparent Right ascension
Unknown
Apparent Declination
Unknown
Sunlit
N/A
Visualization observer readout
Local Sidereal Time
15:38:27
Azimuth
Unknown
Elevation
Unknown
Doppler factor
Unknown
Orbital elements
Apogee altitude
666.865 km
Perigee altitude
591.209 km
Semi-major axis
7,007.174 km
Eccentricity
0.0054
Inclination
98.1372°
RAAN
99.3398°
Arg. of periapsis
311.6986°
True anomaly
48.42273°
Mean anomaly
47.9612°
Eccentric anomaly
48.19175°
Mean motion
3.70023 °/min
Orbital period
97.29 mins
BSTAR
0.00026394
Loading maneuver chart data...
Computing Atmospheric mass density...
Loading historical data...
Loading historical data...
Loading historical data...
Loading historical data...
Loading historical data...
Loading historical data...
Loading historical data...

Documentation

Showing up to 5 results
|